Change the Weather History Date:

Wednesday, January 29, 2014

  Actual Average Record
Temperature  
Mean Temperature 13 °F 29 °F  
Max Temperature 24 °F 36 °F 64 °F (2002)
Min Temperature 2 °F 21 °F 2 °F (2014)
Degree Days  
Heating Degree Days 52 36  
Month to date heating degree days 1305 1072  
Since 1 July heating degree days 3559 3128  
Cooling Degree Days 0 0  
Month to date cooling degree days 0 0  
Year to date cooling degree days 0 0  
Moisture  
Dew Point -1 °F    
Average Humidity 58    
Maximum Humidity 75    
Minimum Humidity 40    
Precipitation  
Precipitation 0.00 in 0.03 in 0.60 in (2006)
Month to date precipitation 1.87 2.14  
Year to date precipitation 1.87 2.14  
Sea Level Pressure  
Sea Level Pressure 30.31 in    
Wind  
Wind Speed 8 mph (SW)    
Max Wind Speed 16 mph    
Max Gust Speed 27 mph    
Visibility 10 miles    
Events      
T = Trace of Precipitation, MM = Missing Value Source: NWS Daily Summary

Daily Weather History Graph

Daily Weather History Graph

Search for Another Location

Airport or City:

Trip Planner

Search our weather history database for the weather conditions in past years. The results will help you decide how hot, cold, wet, or windy it might be!

Date:

Astronomy

Jan. 29, 2014 Rise Set
Actual Time 7:55 AM EST 6:01 PM EST
Civil Twilight 7:27 AM EST 6:29 PM EST
Nautical Twilight 6:54 AM EST 7:02 PM EST
Astronomical Twilight 6:22 AM EST 7:34 PM EST
Moon 6:32 AM EST (1/29) 5:00 PM EST (1/29)
Length of Visible Light 11h 02m
Length of Day
10h 05m
Waning Crescent, 2% of the Moon is Illuminated
Jan 29
Waning Crescent
Jan 30
New
Feb 6
First Quarter
Feb 14
Full
Feb 22
Last Quarter

Hourly Weather History & Observations

Time (EST) Temp. Windchill Dew Point Humidity Pressure Visibility Wind Dir Wind Speed Gust Speed Precip Events Conditions
12:53 AM 3.0 °F -6.4 °F -6.0 °F 66% 30.36 in 10.0 mi SW 4.6 mph - N/A   Clear
1:53 AM 1.9 °F -7.6 °F -6.0 °F 69% 30.35 in 10.0 mi SSW 4.6 mph - N/A   Clear
2:53 AM 5.0 °F -6.9 °F -6.0 °F 61% 30.34 in 10.0 mi WSW 6.9 mph - N/A   Clear
3:53 AM 3.0 °F -8.0 °F -5.1 °F 69% 30.34 in 10.0 mi SSW 5.8 mph - N/A   Clear
4:53 AM 3.9 °F -10.4 °F -5.1 °F 66% 30.32 in 10.0 mi SW 9.2 mph - N/A   Clear
5:53 AM 5.0 °F -8.1 °F -6.0 °F 61% 30.32 in 10.0 mi SW 8.1 mph - N/A   Clear
6:53 AM 5.0 °F -8.1 °F -5.1 °F 63% 30.32 in 10.0 mi SW 8.1 mph - N/A   Clear
7:53 AM 3.9 °F -8.2 °F -5.1 °F 66% 30.33 in 10.0 mi SW 6.9 mph - N/A   Clear
8:53 AM 6.1 °F -7.8 °F -4.0 °F 63% 30.34 in 10.0 mi SW 9.2 mph - N/A   Clear
9:53 AM 10.0 °F -3.7 °F -2.9 °F 56% 30.35 in 10.0 mi SW 10.4 mph 17.3 mph N/A   Clear
10:53 AM 14.0 °F 3.9 °F -2.0 °F 49% 30.35 in 10.0 mi WSW 6.9 mph - N/A   Clear
11:53 AM 16.0 °F 4.4 °F -0.0 °F 49% 30.34 in 10.0 mi SW 9.2 mph 18.4 mph N/A   Clear
12:53 PM 19.0 °F 10.0 °F 3.0 °F 50% 30.31 in 10.0 mi Variable 6.9 mph 18.4 mph N/A   Clear
1:53 PM 21.0 °F 8.1 °F 3.9 °F 48% 30.29 in 10.0 mi SW 13.8 mph 23.0 mph N/A   Clear
2:53 PM 21.9 °F 11.0 °F 5.0 °F 48% 30.28 in 10.0 mi SW 10.4 mph 18.4 mph N/A   Clear
3:53 PM 23.0 °F 11.7 °F 3.9 °F 44% 30.28 in 10.0 mi SW 11.5 mph 26.5 mph N/A   Clear
4:53 PM 24.1 °F 14.4 °F 3.0 °F 40% 30.29 in 10.0 mi SW 9.2 mph 20.7 mph N/A   Clear
5:53 PM 21.9 °F 13.4 °F 3.9 °F 46% 30.28 in 10.0 mi SW 6.9 mph - N/A   Clear
6:53 PM 21.0 °F 13.4 °F 3.9 °F 48% 30.28 in 10.0 mi SSW 5.8 mph - N/A   Clear
7:53 PM 19.0 °F 12.3 °F 3.9 °F 52% 30.29 in 10.0 mi South 4.6 mph - N/A   Clear
8:53 PM 18.0 °F 11.1 °F 3.0 °F 52% 30.28 in 10.0 mi South 4.6 mph - N/A   Clear
9:53 PM 17.1 °F 10.0 °F 3.0 °F 54% 30.27 in 10.0 mi South 4.6 mph - N/A   Clear
10:53 PM 17.1 °F 7.6 °F 1.9 °F 52% 30.25 in 10.0 mi South 6.9 mph - N/A   Clear
11:53 PM 16.0 °F 6.3 °F 1.9 °F 54% 30.23 in 10.0 mi South 6.9 mph - N/A   Clear